Weather in Goiânia

Brazil     16°41′08″S   49°15′37″W
temp.,
°C
wind,
m/s
gust,
m/s
humid.,
%
clouds,
%
prec.,
mm/h
press.,
hPa
HPBL,
m
27 february, sat
sat2700:00+20nne3584100 0.6 1013245
03:00+20n3687100 1.9 1011281
06:00+20nne2387100 0.6 1012225
09:00+21ene1385100 0.6 1013239
12:00+26ne236575 0.5 1012831
15:00+27nne126666 6.7 1009860
18:00+23ne2581100 9.2 1009293
21:00+21ene3687100 12.9 1011304
28 february, sun
sun2800:00+20ne3794100 6.4 1012380
03:00+20ne2792100 9.6 1011379
06:00+19ene3789100 0.1 1011469
09:00+22ne4882100 0.1 1013851
12:00+24nne5870100 0.4 10121137
15:00+25ne586894 1.5 10101235
18:00+23ne477679 0.2 1009765
21:00+21ene398188 0.3 1011479
1 march, mon
mon100:00+20ne3879100 0.0 1012412
03:00+20ene378698 0.3 1010414
06:00+19e2689100 1.3 1011326
09:00+21ene3884100 1.3 1013622
12:00+23ne3678100 0.5 1012606
15:00+26ne347197 4.3 1009909
18:00+24ne2380100 3.8 1009260
21:00+22nne2482100 5.8 1011232
2 march, tue
tue200:00+21ne1384100 0.3 1013164
03:00+20nne3788100 1.3 1012296
06:00+19ne2590100 1.3 1013289
09:00+21ne2583100 2.3 1015442
12:00+24ene357698 0.1 1014698
15:00+27ene346475 1.4 10101059
18:00+24ene247969 7.5 1010255
21:00+22e248184 9.4 1013161
3 march, wed
wed300:00+21ene2686100 0.6 1015250
03:00+20ene2587100 0.6 1014192
06:00+19ne1381100 0.0 1015157
09:00+23ne2472100 0.0 1017405
12:00+28ne345897 0.4 10151235
15:00+28nne236189 2.9 10131160
18:00+25ssw0172100 4.3 1012451
21:00+22sse1278100 6.6 1015144